📊 Raw Sensor Data
Showing records 49526 to 49550 of 85,121 total
| ID | Distance (ft) | Battery V | Battery A | Int Temp (°F) | Int Humid (%) | Ext Temp (°F) | Solar V | RSSI | SNR | Time Stamp |
|---|---|---|---|---|---|---|---|---|---|---|
| 35608 | -- | 4.03 | 0 | 60 | 37 | 55 | 5.10 | -83 | 8 | 03/21/2025 10:46 AM |
| 35607 | -- | 4.03 | 5 | 59 | 37 | 56 | 5.10 | -83 | 8 | 03/21/2025 10:30 AM |
| 35606 | 15.4 | 4.03 | 0 | 58 | 37 | 55 | 5.10 | -85 | 8 | 03/21/2025 10:15 AM |
| 35605 | -- | 4.04 | 5 | 57 | 37 | 55 | 5.10 | -83 | 8 | 03/21/2025 10:00 AM |
| 35604 | -- | 4.03 | 0 | 55 | 37 | 54 | 5.10 | -81 | 9 | 03/21/2025 09:45 AM |
| 35603 | -- | 4.08 | 5 | 54 | 37 | 52 | 5.10 | -82 | 9 | 03/21/2025 09:30 AM |
| 35602 | -- | 4.02 | 0 | 54 | 36 | 52 | 5.10 | -81 | 8 | 03/21/2025 09:15 AM |
| 35601 | -- | 4.03 | 0 | 51 | 37 | 53 | 5.10 | -82 | 8 | 03/21/2025 09:00 AM |
| 35600 | -- | 4.15 | 5 | 50 | 36 | 54 | 5.10 | -82 | 9 | 03/21/2025 08:45 AM |
| 35599 | -- | 4.08 | 49 | 48 | 37 | 53 | 4.50 | -82 | 8 | 03/21/2025 08:30 AM |
| 35598 | -- | 4.07 | 36 | 46 | 37 | 54 | 4.50 | -81 | 8 | 03/21/2025 08:15 AM |
| 35597 | -- | 4.02 | 19 | 44 | 38 | 50 | 4.50 | -81 | 9 | 03/21/2025 08:00 AM |
| 35596 | 15.2 | 4.04 | 10 | 43 | 39 | 46 | 4.50 | -82 | 8 | 03/21/2025 07:45 AM |
| 35595 | 15.2 | 3.95 | 0 | 42 | 39 | 43 | 4.50 | -83 | 7 | 03/21/2025 07:30 AM |
| 35594 | 15.2 | 3.94 | -10 | 42 | 39 | 43 | 4.30 | -82 | 7 | 03/21/2025 07:15 AM |
| 35593 | 15.2 | 3.95 | -5 | 42 | 39 | 44 | 0.80 | -82 | 8 | 03/21/2025 07:00 AM |
| 35592 | 15.2 | 3.96 | -5 | 42 | 39 | 43 | 0.00 | -82 | 7 | 03/21/2025 06:45 AM |
| 35591 | 15.2 | 4.01 | -5 | 42 | 39 | 44 | 0.10 | -82 | 7 | 03/21/2025 06:30 AM |
| 35590 | 15.2 | 3.95 | -5 | 43 | 39 | 44 | 0.00 | -82 | 8 | 03/21/2025 06:15 AM |
| 35589 | 15.2 | 3.96 | -5 | 43 | 39 | 44 | 0.00 | -82 | 7 | 03/21/2025 06:00 AM |
| 35588 | 15.2 | 3.96 | -5 | 42 | 39 | 44 | 0.00 | -81 | 9 | 03/21/2025 05:45 AM |
| 35587 | 15.2 | 4.01 | -5 | 42 | 39 | 43 | 0.10 | -80 | 8 | 03/21/2025 05:30 AM |
| 35586 | 15.3 | 3.96 | -5 | 43 | 39 | 44 | 0.00 | -82 | 9 | 03/21/2025 05:15 AM |
| 35585 | -- | 3.96 | -5 | 43 | 39 | 45 | 0.10 | -83 | 8 | 03/21/2025 05:00 AM |
| 35584 | -- | 3.96 | -5 | 42 | 39 | 44 | 0.00 | -82 | 8 | 03/21/2025 04:46 AM |